TimeAKST,TemperatureF,Dew PointF,Humidity,Sea Level PressureIn,VisibilityMPH,Wind Direction,Wind SpeedMPH,Gust SpeedMPH,PrecipitationIn,Events,Conditions,WindDirDegrees,DateUTC
12:16 AM,42.8,39.2,87,29.68,8.0,SE,15.0,24.2,N/A,,Overcast,140,2012-11-04 08:16:00
12:36 AM,42.8,39.2,87,29.67,10.0,SE,13.8,23.0,N/A,,Overcast,140,2012-11-04 08:36:00
12:56 AM,42.8,39.2,87,29.67,10.0,SE,20.7,27.6,N/A,,Overcast,140,2012-11-04 08:56:00
1:16 AM,44.6,39.2,81,29.68,10.0,SSE,17.3,26.5,N/A,,Overcast,150,2012-11-04 09:16:00
1:36 AM,42.8,39.2,87,29.68,10.0,SE,12.7,19.6,N/A,,Overcast,140,2012-11-04 09:36:00
1:56 AM,42.8,39.2,87,29.67,10.0,SE,12.7,19.6,N/A,,Overcast,140,2012-11-04 09:56:00
1:16 AM,44.6,39.2,81,29.67,10.0,SE,10.4,21.9,N/A,,Overcast,140,2012-11-04 10:16:00
1:36 AM,44.6,39.2,81,29.66,10.0,SE,16.1,21.9,N/A,,Overcast,140,2012-11-04 10:36:00
1:56 AM,44.6,39.2,81,29.65,10.0,SE,17.3,23.0,N/A,,Overcast,140,2012-11-04 10:56:00
2:16 AM,44.6,39.2,81,29.65,10.0,SE,13.8,25.3,N/A,,Overcast,140,2012-11-04 11:16:00
3:36 AM,44.6,39.2,81,29.60,10.0,ESE,10.4,-,N/A,,Mostly Cloudy,110,2012-11-04 12:36:00
3:56 AM,44.6,39.2,81,29.59,10.0,ESE,10.4,-,N/A,,Overcast,110,2012-11-04 12:56:00
4:16 AM,42.8,37.4,81,29.58,10.0,ESE,10.4,18.4,N/A,,Overcast,110,2012-11-04 13:16:00
4:36 AM,42.8,37.4,81,29.57,10.0,ESE,10.4,16.1,N/A,,Overcast,110,2012-11-04 13:36:00
4:56 AM,42.8,37.4,81,29.54,10.0,ESE,8.1,-,N/A,,Overcast,110,2012-11-04 13:56:00
5:16 AM,42.8,37.4,81,29.51,10.0,East,10.4,17.3,N/A,,Overcast,100,2012-11-04 14:16:00
5:36 AM,42.8,37.4,81,29.49,10.0,East,11.5,17.3,N/A,,Mostly Cloudy,100,2012-11-04 14:36:00
5:56 AM,42.8,37.4,81,29.46,10.0,East,10.4,20.7,N/A,,Overcast,100,2012-11-04 14:56:00
6:16 AM,42.8,37.4,81,29.45,10.0,East,11.5,16.1,N/A,,Overcast,100,2012-11-04 15:16:00
6:36 AM,42.8,37.4,81,29.43,10.0,ESE,10.4,16.1,N/A,,Overcast,110,2012-11-04 15:36:00
6:56 AM,42.8,37.4,81,29.40,10.0,East,10.4,18.4,N/A,,Overcast,100,2012-11-04 15:56:00
7:16 AM,42.8,37.4,81,29.37,10.0,ESE,9.2,-,N/A,,Overcast,110,2012-11-04 16:16:00
7:36 AM,42.8,37.4,81,29.34,10.0,East,5.8,-,N/A,,Overcast,100,2012-11-04 16:36:00
7:56 AM,42.8,37.4,81,29.31,10.0,East,9.2,-,N/A,,Overcast,90,2012-11-04 16:56:00
8:16 AM,42.8,37.4,81,29.27,8.0,East,12.7,21.9,N/A,,Overcast,100,2012-11-04 17:16:00
8:36 AM,42.8,37.4,81,29.24,10.0,East,6.9,-,N/A,,Overcast,90,2012-11-04 17:36:00
8:56 AM,42.8,37.4,81,29.21,9.0,ENE,5.8,-,N/A,,Overcast,70,2012-11-04 17:56:00
9:16 AM,42.8,37.4,81,29.19,10.0,NE,8.1,-,N/A,,Overcast,50,2012-11-04 18:16:00
9:36 AM,42.8,37.4,81,29.15,5.0,ENE,8.1,-,N/A,,Overcast,60,2012-11-04 18:36:00
9:56 AM,42.8,37.4,81,29.13,7.0,ENE,8.1,-,N/A,,Overcast,60,2012-11-04 18:56:00
10:16 AM,42.8,37.4,81,29.10,6.0,NE,12.7,-,N/A,,Overcast,50,2012-11-04 19:16:00
10:36 AM,42.8,37.4,81,29.07,7.0,ENE,6.9,16.1,N/A,,Overcast,60,2012-11-04 19:36:00
10:56 AM,42.8,37.4,81,29.05,5.0,NE,13.8,21.9,N/A,,Overcast,40,2012-11-04 19:56:00
11:16 AM,42.8,37.4,81,29.04,6.0,ENE,13.8,21.9,N/A,,Overcast,60,2012-11-04 20:16:00
11:36 AM,41.0,37.4,87,29.02,7.0,NE,11.5,19.6,N/A,,Overcast,50,2012-11-04 20:36:00
11:56 AM,42.8,37.4,81,29.01,8.0,NE,13.8,21.9,N/A,,Overcast,50,2012-11-04 20:56:00
12:16 PM,42.8,37.4,81,29.01,5.0,East,6.9,-,N/A,,Overcast,90,2012-11-04 21:16:00
12:36 PM,42.8,39.2,87,29.01,9.0,East,5.8,-,N/A,,Mostly Cloudy,80,2012-11-04 21:36:00
12:56 PM,42.8,39.2,87,28.99,5.0,NE,11.5,-,N/A,,Overcast,50,2012-11-04 21:56:00
1:16 PM,42.8,37.4,81,28.99,8.0,ENE,15.0,20.7,N/A,,Overcast,60,2012-11-04 22:16:00
1:36 PM,44.6,39.2,81,28.96,10.0,East,11.5,19.6,N/A,,Overcast,90,2012-11-04 22:36:00
1:56 PM,44.6,41.0,87,28.96,10.0,ENE,12.7,16.1,N/A,,Overcast,60,2012-11-04 22:56:00
2:16 PM,44.6,39.2,81,28.97,8.0,East,12.7,26.5,N/A,,Overcast,100,2012-11-04 23:16:00
2:36 PM,46.4,41.0,81,28.95,10.0,East,10.4,20.7,N/A,,Overcast,80,2012-11-04 23:36:00
2:56 PM,46.4,41.0,81,28.95,10.0,East,8.1,-,N/A,,Overcast,90,2012-11-04 23:56:00
3:16 PM,44.6,39.2,81,28.94,8.0,ENE,10.4,-,N/A,,Overcast,60,2012-11-05 00:16:00
3:36 PM,46.4,42.8,87,28.94,4.0,East,8.1,19.6,N/A,,Overcast,100,2012-11-05 00:36:00
3:56 PM,46.4,41.0,81,28.93,8.0,ESE,13.8,19.6,N/A,,Overcast,110,2012-11-05 00:56:00
4:16 PM,46.4,41.0,81,28.94,8.0,East,11.5,21.9,N/A,,Overcast,100,2012-11-05 01:16:00
4:36 PM,46.4,41.0,81,28.95,10.0,East,11.5,-,N/A,,Overcast,100,2012-11-05 01:36:00
4:56 PM,46.4,41.0,81,28.96,9.0,East,12.7,19.6,N/A,,Overcast,100,2012-11-05 01:56:00
5:16 PM,44.6,39.2,81,28.97,9.0,ESE,13.8,19.6,N/A,,Overcast,110,2012-11-05 02:16:00
5:36 PM,44.6,39.2,81,28.98,9.0,East,12.7,26.5,N/A,,Overcast,100,2012-11-05 02:36:00
5:56 PM,44.6,39.2,81,28.99,10.0,East,15.0,26.5,N/A,,Overcast,100,2012-11-05 02:56:00
6:16 PM,44.6,39.2,81,28.99,9.0,ESE,17.3,28.8,N/A,,Overcast,110,2012-11-05 03:16:00
6:36 PM,44.6,39.2,81,29.00,10.0,East,17.3,26.5,N/A,,Overcast,100,2012-11-05 03:36:00
6:56 PM,44.6,39.2,81,29.02,10.0,East,15.0,26.5,N/A,,Overcast,100,2012-11-05 03:56:00
7:16 PM,44.6,39.2,81,29.04,10.0,ESE,13.8,23.0,N/A,,Overcast,110,2012-11-05 04:16:00
7:36 PM,44.6,39.2,81,29.05,9.0,East,13.8,23.0,N/A,,Overcast,100,2012-11-05 04:36:00
7:56 PM,44.6,41.0,87,29.06,8.0,East,13.8,23.0,N/A,,Overcast,100,2012-11-05 04:56:00
8:16 PM,44.6,41.0,87,29.07,10.0,East,15.0,24.2,N/A,,Overcast,100,2012-11-05 05:16:00
8:36 PM,46.4,41.0,81,29.08,10.0,ESE,19.6,28.8,N/A,,Overcast,120,2012-11-05 05:36:00
8:56 PM,46.4,42.8,87,29.11,8.0,SE,19.6,28.8,N/A,,Overcast,140,2012-11-05 05:56:00
9:16 PM,46.4,42.8,87,29.16,10.0,SSE,13.8,25.3,N/A,,Overcast,150,2012-11-05 06:16:00
9:36 PM,46.4,42.8,87,29.20,10.0,SSE,11.5,25.3,N/A,,Overcast,160,2012-11-05 06:36:00
9:56 PM,46.4,42.8,87,29.25,10.0,SSE,15.0,19.6,N/A,,Overcast,160,2012-11-05 06:56:00
10:16 PM,46.4,41.0,81,29.28,10.0,South,10.4,19.6,N/A,,Overcast,180,2012-11-05 07:16:00
10:36 PM,46.4,41.0,81,29.31,10.0,SSE,10.4,17.3,N/A,,Overcast,160,2012-11-05 07:36:00
10:56 PM,46.4,42.8,87,29.35,10.0,SSE,13.8,18.4,N/A,,Overcast,150,2012-11-05 07:56:00